Theta_e
310 310 310 310 310 310 310 310 310 310 310 311 311 311 311 311 312 312 312 313 313 313 313 313 313 313 313 313 313 313 314 313 314 313 313 313 315 316 314 314 313 313 315 316 315 315 315 315 315 315 315 316 316 317 318 317 317 318 319 319 318 318 319 318 318 318 317 317 318 317 315 316 316 316 315 315 315 315 316 317 316 316 317 317 317 317 317 318
310 310 310 310 310 310 310 311 310 310 311 311 311 311 311 311 311 312 312 312 312 313 313 313 313 313 313 313 313 313 313 313 313 313 313 314 315 315 314 314 314 313 314 315 315 315 315 315 315 315 315 317 317 317 319 318 318 319 319 318 318 319 319 318 318 318 317 317 318 317 315 315 315 316 314 315 316 316 316 317 317 317 317 317 317 317 317 317
310 310 310 310 310 310 310 310 310 311 310 311 311 311 311 311 311 312 312 312 312 312 313 313 313 313 313 313 313 313 313 314 314 313 314 315 314 314 314 314 314 314 314 314 315 314 314 315 315 315 315 317 317 317 319 319 319 320 319 318 319 320 318 316 317 317 316 316 317 317 315 314 314 314 314 315 316 316 316 317 318 318 318 317 317 316 316 316
309 310 310 310 310 310 310 310 310 310 310 311 311 311 311 311 311 311 311 312 312 312 312 312 312 312 313 313 313 313 313 314 314 314 314 315 315 314 314 314 315 314 314 314 314 314 314 314 315 315 316 317 317 317 319 319 319 319 318 318 319 319 318 317 316 316 316 315 315 316 315 314 315 314 314 315 315 316 317 318 317 318 317 317 317 316 316 316
310 310 310 310 310 310 310 311 311 311 311 311 311 311 312 312 312 312 312 312 312 312 312 312 313 313 313 313 313 313 313 315 315 314 315 315 315 314 314 315 315 314 314 314 314 315 314 314 314 315 315 317 317 317 318 319 318 318 318 319 320 317 317 318 317 316 316 315 314 314 315 315 315 314 314 314 315 316 317 317 317 317 317 316 316 316 315 315
310 311 311 311 311 311 312 312 312 312 312 312 312 313 313 313 313 313 313 313 314 313 314 314 314 314 314 314 314 314 314 315 315 314 315 315 315 314 314 315 316 314 314 314 314 314 314 314 314 315 316 316 317 317 316 317 317 317 318 319 319 318 317 318 316 316 316 315 314 315 316 315 315 315 315 314 315 316 316 316 316 316 316 315 315 315 315 315
312 312 312 312 312 312 312 312 312 312 312 312 313 313 313 313 313 313 313 313 314 314 314 314 314 314 314 314 313 313 313 315 316 315 315 315 315 314 314 315 315 314 314 314 314 314 315 314 315 315 316 316 316 316 315 316 316 316 317 318 317 317 317 317 316 316 315 315 315 315 315 315 316 316 316 315 315 315 315 315 315 315 315 315 314 315 314 314
312 312 312 312 312 312 312 312 313 313 313 314 314 314 314 314 314 314 314 314 314 314 314 314 313 314 313 313 312 312 312 314 315 315 315 315 315 314 314 315 315 314 314 315 315 314 315 314 314 314 315 316 315 315 314 315 316 316 316 317 317 316 316 316 316 315 314 314 315 315 315 316 317 316 315 315 315 315 315 314 314 314 314 314 314 314 314 314
312 312 312 312 313 314 314 315 315 316 317 317 317 318 318 318 318 318 318 318 318 317 317 317 316 316 315 314 313 312 313 314 315 315 315 315 315 315 315 315 315 315 315 315 315 315 315 315 314 314 315 315 314 314 314 313 315 316 316 317 316 316 315 315 314 314 314 314 313 313 314 316 315 314 315 315 315 315 314 314 314 314 314 314 314 314 314 314
314 314 314 315 316 316 317 318 318 318 318 319 319 319 319 319 318 318 318 318 318 318 318 318 318 318 317 317 314 314 314 315 315 315 315 315 315 315 315 315 315 315 315 315 314 314 315 315 314 314 314 314 313 313 313 313 313 314 314 314 314 314 314 313 313 313 313 312 312 313 314 315 314 312 314 315 315 314 314 313 314 313 314 314 314 314 314 314
315 315 316 316 317 317 317 317 317 317 316 316 316 315 315 315 315 315 315 315 315 315 315 315 316 316 317 317 316 316 316 315 315 314 314 314 314 314 315 315 315 315 315 315 314 314 314 314 314 313 314 313 313 312 312 312 313 312 312 312 313 314 314 313 312 312 312 311 311 312 312 314 313 311 313 315 315 313 313 313 313 313 313 314 314 314 314 314
315 315 316 316 316 316 316 315 314 314 313 313 314 314 314 315 315 315 316 316 316 316 316 315 314 314 314 314 315 317 318 317 316 316 315 314 313 313 313 314 314 314 315 314 314 314 314 314 314 313 313 313 313 312 311 311 311 311 311 312 313 313 313 314 314 313 312 311 311 311 311 312 312 312 313 314 314 313 312 312 313 313 314 314 314 314 314 314
315 315 315 315 315 314 314 313 313 314 315 316 316 317 318 318 318 319 319 319 319 319 318 318 316 314 313 313 315 316 316 316 316 316 316 315 314 313 313 313 313 313 314 314 314 314 314 314 314 313 312 313 313 311 311 310 310 312 311 311 312 313 313 314 313 311 310 311 310 311 312 313 314 314 315 314 314 313 312 312 313 313 313 314 314 314 314 314
315 315 314 314 314 313 314 315 316 318 319 320 321 321 321 321 321 322 321 322 321 320 320 319 318 315 312 314 316 316 315 315 315 315 315 316 315 314 313 312 312 312 313 313 313 313 314 313 312 312 312 312 312 311 311 311 311 312 311 311 312 313 314 314 312 309 310 311 310 311 312 313 314 315 315 314 313 311 311 312 313 313 313 313 313 313 313 314
314 313 314 314 315 316 318 319 320 322 323 323 323 323 323 323 323 323 323 322 322 321 320 319 318 315 312 314 317 316 316 315 315 315 315 315 315 314 313 312 312 312 312 313 313 313 313 312 311 312 312 311 311 311 312 312 311 311 311 313 314 313 314 315 313 311 312 310 309 310 312 313 314 315 315 314 313 311 311 312 312 313 313 312 313 312 313 314
314 314 316 317 319 320 321 322 323 324 324 323 324 323 323 323 323 323 322 321 321 320 320 318 316 314 313 315 317 317 316 316 315 315 315 315 314 314 313 313 312 312 312 313 313 312 312 310 311 311 311 311 312 312 312 313 313 313 312 314 315 314 314 314 314 314 312 310 309 310 312 313 314 314 314 313 313 312 312 312 313 313 313 313 313 313 312 313
317 318 320 321 322 323 324 324 324 324 324 323 323 323 323 323 322 322 321 321 320 319 318 317 315 313 314 316 317 316 316 316 315 315 314 314 314 314 313 313 313 312 312 312 312 311 311 310 311 311 312 312 312 312 313 314 315 314 314 314 314 314 313 313 313 313 311 310 311 310 310 312 312 313 313 313 313 312 312 313 313 313 313 313 313 313 313 313
321 322 323 323 324 324 325 324 324 323 323 322 322 321 321 321 321 321 320 319 318 317 316 315 314 315 317 316 316 316 315 315 315 315 314 314 314 313 313 313 313 313 312 312 312 311 311 311 311 313 314 312 312 313 315 316 316 315 315 314 313 313 312 312 313 313 311 310 311 311 311 311 312 313 313 313 312 312 313 313 313 313 313 313 313 313 313 313
323 323 324 324 324 325 324 323 322 321 321 321 320 320 320 320 320 320 319 318 317 318 318 316 315 317 319 317 316 316 316 316 316 316 315 315 314 314 313 313 312 313 313 313 313 312 312 312 312 314 315 314 314 313 315 316 315 314 313 313 313 313 312 312 312 313 312 311 311 311 312 312 312 312 313 313 313 313 313 313 313 313 313 313 313 313 313 313
323 323 324 324 325 324 324 321 320 320 320 320 320 320 320 320 320 319 317 318 319 320 320 319 318 319 319 319 320 319 318 318 317 316 315 314 314 313 313 313 312 312 313 314 314 312 312 313 314 315 316 316 315 314 314 315 313 312 312 313 313 313 313 313 313 313 312 310 311 312 312 312 312 312 313 314 313 313 313 313 313 313 313 314 314 314 314 314
322 323 323 324 324 324 322 319 319 320 320 320 320 320 320 319 320 319 317 319 321 320 320 321 320 320 320 320 320 319 317 317 316 315 314 314 313 313 313 312 313 313 312 313 313 310 310 314 315 315 316 315 314 313 313 312 312 312 312 313 313 313 314 313 313 313 311 310 311 311 311 312 312 312 312 313 313 313 314 313 314 314 314 314 315 314 314 313
322 322 322 323 324 323 321 319 319 320 319 320 320 320 321 319 319 318 316 317 319 320 320 320 320 319 320 320 318 317 315 314 315 314 314 313 313 314 313 312 313 314 312 310 312 312 312 314 314 315 315 313 310 309 310 310 311 312 312 313 313 314 314 313 313 311 309 309 311 312 311 311 311 312 312 313 313 313 314 314 314 314 315 315 314 313 312 312
322 320 319 320 320 320 320 319 319 319 319 320 320 321 321 319 318 317 315 313 316 319 320 318 317 317 317 318 317 316 314 314 314 314 314 313 313 313 313 312 312 313 312 311 314 315 315 315 314 314 314 311 310 309 309 310 311 312 312 313 313 314 314 314 313 310 308 309 311 311 311 312 313 313 313 314 314 313 314 314 314 314 314 314 313 312 312 312
321 318 317 318 319 319 320 319 319 319 320 320 321 322 320 319 318 316 314 313 314 317 317 316 315 315 315 314 315 315 314 314 314 313 314 314 313 313 313 313 312 312 312 312 314 316 317 314 311 312 312 310 311 311 310 311 312 313 313 313 314 314 314 314 313 311 310 311 310 311 314 315 315 315 315 314 312 313 314 315 315 314 313 313 312 312 312 312
321 317 318 319 319 320 320 320 320 319 320 321 321 321 320 318 317 315 314 314 315 315 314 314 313 313 313 312 313 313 312 313 313 312 313 313 313 313 312 312 312 313 313 313 312 314 316 313 310 311 311 310 311 312 312 313 314 315 315 313 313 314 314 313 314 312 312 313 312 312 316 317 316 315 316 316 314 315 316 316 316 315 313 313 312 311 311 311
321 318 319 320 320 320 321 321 320 320 320 321 321 321 320 318 316 314 313 315 318 317 315 313 312 312 311 311 311 311 313 313 311 311 312 312 312 312 312 311 311 312 312 311 312 312 313 310 309 311 312 311 312 312 313 314 313 314 315 314 313 313 313 313 313 312 313 314 312 311 314 316 316 315 316 316 316 316 317 317 317 315 314 313 312 311 310 310
320 318 320 321 320 320 321 321 321 320 320 322 321 321 320 318 315 313 314 318 321 318 315 312 311 311 310 310 310 311 314 313 311 311 311 312 312 311 312 312 310 310 309 310 314 313 311 310 309 311 312 312 312 313 314 313 312 315 315 314 313 313 313 313 312 312 312 313 312 311 313 315 316 316 315 315 315 316 316 317 317 316 314 312 311 310 309 309
320 321 322 321 320 320 321 322 322 321 321 322 321 320 319 317 315 313 316 323 322 316 314 311 311 311 310 310 310 310 310 310 310 311 310 311 312 310 311 312 311 311 308 310 316 313 311 312 312 311 311 312 313 314 314 312 313 315 312 310 311 311 312 311 311 312 311 311 313 313 312 315 318 316 313 313 315 316 317 317 315 314 313 311 311 310 308 307
321 322 322 321 320 320 320 321 322 321 321 321 321 320 319 317 315 313 317 322 319 314 313 312 311 311 310 310 310 309 309 309 310 310 309 311 311 310 311 310 310 310 308 310 314 314 311 310 310 312 313 313 313 312 312 313 313 312 309 309 311 311 310 310 311 312 311 312 315 314 313 316 319 318 314 313 314 317 318 316 314 313 311 311 311 309 307 307
322 321 321 320 320 319 319 320 322 322 321 321 320 320 318 317 315 316 320 320 316 313 313 311 311 311 310 311 311 309 309 309 310 309 310 311 311 310 310 309 308 309 310 309 311 312 309 307 307 310 312 312 312 309 308 312 311 309 310 311 312 311 310 310 310 311 312 316 317 315 314 316 318 319 317 315 315 315 316 314 314 313 312 311 309 308 307 307
321 320 320 319 319 319 318 319 320 321 320 320 320 318 317 317 317 319 321 318 314 314 313 312 311 311 311 312 313 311 309 309 308 310 311 310 310 310 309 310 310 310 312 310 311 312 309 307 308 310 309 309 311 310 306 307 307 309 311 311 313 313 311 311 311 311 315 320 317 314 314 316 317 318 316 315 314 313 313 313 313 313 312 310 308 306 306 306
320 319 319 318 318 317 317 318 319 320 319 319 319 317 317 319 318 319 319 316 316 318 315 313 311 311 312 313 315 313 311 311 309 309 312 311 311 312 312 314 313 314 316 315 314 314 312 311 310 309 308 308 311 312 309 307 307 309 311 311 313 316 316 317 316 315 318 320 313 310 313 315 316 317 315 315 316 314 313 312 312 312 311 309 307 305 304 304
318 317 317 316 316 316 316 317 318 319 319 318 318 316 317 319 320 319 318 317 317 316 315 315 312 312 313 314 317 314 312 315 312 309 311 311 311 313 314 314 313 315 317 315 315 316 317 315 310 309 310 309 310 312 313 312 310 309 311 312 314 317 319 321 320 317 318 318 310 308 313 314 315 317 315 315 315 313 310 309 309 309 309 308 305 304 303 303
317 316 316 316 316 316 315 316 317 317 318 318 318 317 317 319 319 319 318 318 318 315 315 316 314 314 314 314 318 316 314 317 314 310 311 311 311 314 315 313 311 312 314 314 314 315 318 318 313 312 313 311 310 312 316 316 312 310 312 313 315 318 319 321 321 319 321 319 312 309 314 316 317 316 313 313 313 310 308 308 307 307 307 305 304 302 301 301
315 315 315 314 314 314 314 315 316 316 317 317 318 318 318 318 318 317 317 317 318 318 316 315 316 317 315 315 317 315 314 316 313 311 311 312 313 314 315 315 312 311 312 314 315 313 315 318 315 312 311 310 311 313 315 315 313 311 310 312 314 316 317 318 319 319 319 318 315 313 315 316 316 316 314 312 310 308 308 307 306 306 305 304 302 301 300 299
314 314 313 313 312 313 312 313 314 315 317 318 317 317 316 316 316 317 317 315 316 319 318 316 317 317 316 315 315 313 312 313 312 312 312 312 314 314 315 317 314 311 312 315 316 315 315 316 315 310 309 309 309 310 311 312 313 311 309 312 313 313 314 316 317 317 315 316 317 316 316 316 315 317 315 311 308 307 307 305 305 304 303 302 300 299 298 297
312 311 310 311 310 310 310 310 312 314 316 317 316 316 316 316 315 316 316 314 314 317 317 316 316 316 315 315 315 313 312 313 312 312 313 312 312 313 314 314 312 311 312 313 315 316 315 315 316 313 313 310 305 306 309 309 310 311 311 313 313 312 312 312 314 316 316 316 318 317 317 317 316 317 314 311 309 307 305 303 303 302 301 301 299 298 297 296
308 307 307 308 307 307 307 308 310 313 316 316 315 315 315 315 314 314 315 313 313 315 315 314 315 316 314 313 313 313 312 313 313 312 313 314 313 314 314 314 311 309 310 311 312 313 313 315 315 314 314 310 305 307 311 309 308 310 311 310 312 313 313 313 314 315 317 318 317 317 317 316 316 317 316 314 310 307 304 302 301 300 300 299 298 297 296 295
305 305 305 306 306 306 305 306 308 313 316 315 314 314 314 314 313 313 314 314 314 315 314 314 314 314 314 313 314 314 313 314 313 312 313 314 313 313 313 313 312 308 307 309 311 312 313 314 315 315 313 310 308 310 312 311 309 308 309 309 310 312 313 314 314 314 316 317 317 317 317 317 316 316 315 312 308 306 304 301 299 299 298 297 297 296 295 294
303 303 304 306 307 306 304 305 308 313 315 314 313 314 314 314 314 313 313 314 314 314 314 314 314 314 314 314 314 315 314 314 314 314 314 314 314 314 312 312 313 310 307 309 310 311 313 314 314 315 313 311 311 312 312 313 312 310 310 310 310 310 311 312 312 313 315 315 316 317 316 316 314 311 309 306 303 303 302 300 298 298 297 296 295 294 293 293
301 303 304 305 308 307 305 306 310 312 314 314 313 313 313 313 313 313 313 313 313 314 313 315 315 314 314 315 314 315 315 315 315 315 315 314 313 314 312 309 312 311 309 310 311 311 312 313 313 314 313 313 313 313 312 312 312 311 311 311 312 311 312 313 314 314 314 315 315 316 316 317 312 306 304 302 300 301 300 299 298 297 296 295 294 293 293 292
301 303 305 306 308 308 307 308 310 311 313 314 313 312 312 312 312 312 312 312 313 314 313 314 315 314 314 315 315 315 315 316 315 315 315 314 314 313 310 307 309 310 311 313 313 310 309 311 313 313 313 314 313 312 311 311 311 311 311 311 313 312 311 313 314 315 315 315 314 315 316 316 309 303 301 300 298 298 298 298 297 296 295 294 293 293 293 293
301 303 305 307 308 308 308 309 310 310 312 313 313 313 313 313 312 312 311 312 313 313 314 314 314 314 314 314 314 315 315 315 314 314 315 314 313 310 306 306 308 308 310 314 313 310 308 309 312 313 312 313 313 312 310 310 310 311 312 311 311 312 311 312 312 313 314 314 314 314 316 315 307 301 299 299 298 298 297 297 297 296 295 294 293 293 293 293
301 302 305 308 308 307 308 309 310 310 310 311 312 312 312 312 312 312 312 312 313 313 313 314 313 313 313 313 313 314 314 313 313 312 313 314 311 305 304 306 307 307 310 312 312 310 309 310 311 313 313 313 314 313 312 310 310 310 310 309 310 311 311 311 311 312 312 314 314 313 314 316 311 304 301 300 299 298 297 296 296 296 295 294 294 294 293 293
298 299 303 306 308 308 308 308 308 309 310 310 310 310 311 311 311 312 312 312 312 313 313 313 311 311 312 311 311 313 312 311 311 311 311 312 310 305 304 306 306 307 307 307 308 309 309 310 311 312 313 313 313 313 312 311 310 310 310 309 309 310 310 310 310 311 312 313 312 311 311 313 313 310 307 304 301 300 298 296 296 296 295 295 295 294 292 291
296 298 301 302 305 306 305 305 306 308 309 309 310 310 310 310 310 311 311 312 312 311 312 312 309 308 309 310 310 311 311 309 310 310 310 311 311 306 303 303 304 305 305 304 305 307 307 309 311 310 311 311 310 310 311 311 310 310 310 309 308 308 308 308 308 309 310 310 309 309 309 309 309 308 308 306 303 300 298 296 296 295 295 295 295 294 293 291
296 299 301 301 303 304 304 304 305 307 308 308 310 310 309 309 309 309 310 310 310 310 311 310 309 309 309 310 310 310 310 309 309 310 309 309 310 306 302 301 302 302 303 302 302 305 306 307 308 308 308 308 308 308 308 308 308 308 307 307 306 306 306 307 307 306 307 307 307 307 306 307 306 306 306 304 300 298 296 295 295 294 295 294 294 294 293 292
296 297 298 299 302 303 303 303 304 305 306 306 308 308 308 308 308 308 309 309 308 309 310 309 308 309 309 309 309 310 310 310 309 309 308 307 306 304 303 302 300 299 301 301 300 303 305 304 305 306 306 305 305 305 305 305 305 305 304 304 304 304 305 305 305 305 305 305 305 305 305 305 305 305 304 300 296 295 295 294 294 293 294 294 294 294 294 293
295 295 295 297 299 300 300 300 300 302 304 304 305 306 306 307 308 307 308 308 307 307 308 309 307 306 306 307 308 308 308 309 308 307 307 305 304 304 304 303 300 298 298 299 300 301 302 302 304 304 303 304 304 304 304 303 303 302 302 302 303 302 303 303 303 303 303 303 303 303 304 304 304 302 300 296 294 294 294 293 294 293 293 294 294 294 294 294
295 295 296 297 297 296 297 297 298 300 301 302 304 305 305 306 307 306 305 305 306 307 307 308 306 303 303 305 306 305 306 307 306 305 304 304 304 303 302 303 302 299 298 298 299 301 301 302 303 302 301 302 302 302 302 302 301 300 300 300 300 301 301 301 301 301 301 302 302 302 302 302 300 296 296 295 294 293 293 293 293 293 293 293 293 294 294 293
295 295 295 296 297 297 296 296 298 299 299 301 302 303 304 303 303 304 302 300 301 303 304 303 303 301 300 302 303 303 302 302 302 301 300 301 301 301 300 300 299 298 297 298 299 299 300 301 301 300 300 300 301 301 300 299 298 297 298 298 298 299 299 299 301 301 300 301 301 301 301 301 298 294 294 294 294 293 293 293 293 292 292 292 292 292 292 292
294 294 294 294 295 296 295 295 296 297 298 299 299 300 301 300 298 300 301 299 296 297 298 299 300 300 299 300 301 300 299 299 298 297 297 297 297 297 297 297 297 297 296 297 297 297 298 299 299 299 299 299 300 299 296 295 296 297 297 297 297 297 298 298 298 299 299 300 300 300 299 297 296 295 293 293 293 293 293 293 292 292 292 291 291 291 291 291
Wind_Speed
3 3 3 3 3 3 3 3 3 3 3 3 3 2 3 2 3 3 3 4 5 5 6 7 8 9 10 11 12 13 14 16 17 19 19 10 2 2 4 4 4 6 7 9 9 7 7 7 8 7 6 5 4 4 4 4 5 6 3 3 4 4 4 4 6 5 1 5 5 4 6 7 7 6 7 10 10 13 17 23 25 25 27 29 28 27 27 26
4 4 4 4 4 4 4 4 4 4 4 4 4 4 5 5 5 5 6 6 7 8 8 9 10 11 12 13 14 15 16 17 19 21 14 2 3 4 4 4 3 3 6 9 9 8 8 7 8 8 7 5 4 4 4 4 6 5 2 3 5 5 3 4 7 7 5 10 10 8 8 8 9 8 6 9 11 11 14 21 22 23 28 29 27 25 24 24
6 6 6 6 6 5 6 6 6 6 6 6 6 7 7 7 7 8 8 8 9 10 10 11 11 12 13 14 15 16 17 19 21 16 4 7 4 8 7 5 3 2 5 7 8 8 8 7 7 8 8 6 4 4 4 5 6 5 4 5 7 7 5 6 10 10 11 14 13 11 9 8 12 11 7 8 12 12 14 20 19 20 23 22 22 23 21 21
7 7 7 7 7 7 7 7 7 7 8 8 8 9 9 9 9 10 10 10 11 12 12 12 13 14 14 15 16 16 17 17 14 6 8 6 6 12 10 5 4 2 2 5 8 9 9 9 8 8 9 5 3 4 5 7 6 4 6 8 6 4 5 9 14 15 15 15 13 11 9 10 12 13 11 9 10 11 16 20 20 24 24 20 20 24 25 25
7 7 7 8 8 8 8 8 8 9 9 9 10 10 10 10 11 11 11 12 12 13 14 14 14 15 15 16 16 15 14 9 4 1 6 5 11 15 11 6 5 2 1 3 7 9 9 9 8 8 8 5 4 4 5 10 8 4 8 13 10 5 6 9 10 12 14 14 13 9 9 11 12 14 15 13 10 13 20 23 23 27 29 27 26 28 31 31
8 8 9 9 9 9 9 10 10 10 11 11 11 12 12 12 13 13 13 13 14 14 15 15 16 15 16 17 17 15 9 5 6 7 9 12 15 15 11 8 6 4 3 4 6 8 10 10 9 7 5 4 6 6 4 10 11 7 9 12 14 10 11 12 7 8 11 11 10 9 12 15 13 16 17 18 19 25 31 33 34 34 35 37 35 35 36 34
10 10 10 10 11 11 11 11 12 12 12 13 13 14 14 14 15 15 15 15 15 16 16 17 17 16 17 18 19 16 10 13 17 16 15 15 14 11 9 9 7 7 6 7 7 8 10 10 10 7 5 4 6 7 5 8 11 9 9 8 10 11 15 18 11 11 13 13 14 14 17 19 16 16 18 18 21 31 40 40 41 40 38 38 37 35 34 32
12 12 12 12 12 12 12 13 13 13 14 14 15 16 16 17 17 17 17 18 18 17 17 18 18 17 18 17 18 14 13 19 19 14 11 9 8 7 8 9 9 9 9 9 8 8 9 10 12 9 7 6 6 6 5 6 8 10 12 9 8 9 16 19 15 16 17 19 19 16 18 23 23 16 23 29 29 36 41 38 37 36 35 33 32 31 29 29
12 12 12 12 13 13 13 13 14 14 15 16 17 17 18 18 18 19 18 19 19 19 19 18 18 18 17 18 17 12 15 20 14 8 7 6 7 8 10 11 11 11 11 10 9 9 9 10 13 11 8 6 7 6 6 7 6 9 11 10 9 11 15 17 17 17 17 20 17 12 17 24 21 14 24 35 32 31 29 27 28 28 31 31 30 30 28 28
12 12 12 13 13 13 14 14 15 15 16 17 17 18 18 19 18 18 18 18 18 18 18 17 18 18 17 18 14 10 16 17 10 9 9 11 13 13 14 13 14 14 12 12 11 11 11 11 11 10 9 7 8 7 6 7 4 2 5 9 13 17 17 16 17 17 16 19 15 12 16 22 14 5 16 24 19 20 18 22 28 28 31 32 30 28 26 28
12 13 13 13 14 14 14 14 15 15 16 16 17 17 17 17 17 17 17 16 16 16 16 16 16 17 17 18 15 14 18 17 13 15 14 15 17 16 16 15 16 15 13 13 12 12 12 12 11 8 7 6 6 6 7 9 6 5 6 10 15 17 18 17 18 19 14 12 11 13 14 18 10 4 19 29 24 23 20 23 29 29 31 30 28 27 25 27
12 13 13 14 14 15 14 14 14 13 14 14 15 15 15 16 15 15 15 15 15 14 14 14 14 16 16 18 22 22 22 20 18 17 17 18 19 19 19 17 16 14 14 14 12 12 11 13 14 11 7 5 3 3 4 6 5 6 6 9 14 13 17 18 16 14 10 5 4 9 7 12 10 13 28 33 27 26 22 23 28 29 30 28 28 28 28 30
12 13 13 14 14 14 13 12 12 11 12 12 13 14 14 14 14 14 14 14 14 13 13 13 14 15 14 16 24 24 20 19 17 16 16 17 19 21 21 19 17 15 15 15 13 13 12 13 13 13 11 7 3 2 1 2 2 6 3 4 10 10 11 9 6 5 5 4 7 8 5 7 10 18 26 24 21 22 20 22 25 26 28 29 31 33 36 38
12 12 12 12 12 11 11 10 10 10 10 11 12 13 14 14 14 14 14 13 13 12 13 12 13 14 12 16 23 23 20 18 16 15 16 17 19 21 21 20 18 16 15 14 14 13 13 12 13 12 12 11 6 4 4 1 2 5 2 2 6 7 7 2 4 3 3 5 12 8 7 8 8 16 19 16 16 16 14 19 23 25 27 29 33 35 39 43
11 11 10 10 10 9 9 9 9 9 10 11 12 13 14 14 14 14 14 14 13 13 12 12 13 11 10 15 21 20 19 16 13 13 14 15 18 19 19 18 16 15 13 13 14 13 11 11 12 10 8 11 9 6 4 2 2 3 3 5 4 4 7 7 4 6 6 3 12 9 7 7 8 13 15 15 15 13 13 20 27 31 31 33 35 34 39 43
9 9 9 9 8 8 8 8 9 9 10 11 12 13 13 14 14 14 14 14 13 12 11 10 11 9 7 11 16 18 17 14 11 13 13 13 15 15 16 14 11 11 11 12 12 11 10 10 10 8 5 7 6 4 4 4 4 4 5 7 6 7 7 7 8 7 6 3 9 11 8 8 7 10 16 19 20 18 19 27 33 36 35 34 34 35 39 42
8 8 8 8 8 8 8 8 9 9 10 11 12 12 13 14 14 13 13 12 11 9 7 7 7 8 9 13 16 16 14 11 9 9 9 10 11 12 13 11 9 9 10 10 9 9 10 10 7 6 5 4 2 2 4 4 6 4 5 6 6 9 9 7 9 4 5 6 8 10 10 13 14 16 22 25 27 25 24 29 33 34 35 32 31 35 39 40
7 7 7 7 7 8 8 9 9 10 10 11 12 12 14 13 12 12 11 8 6 4 4 4 4 4 7 13 13 11 10 10 10 11 12 12 11 9 9 9 9 9 9 7 8 9 9 7 4 3 4 4 3 4 5 7 9 8 6 6 6 7 9 9 10 6 3 7 8 9 12 15 16 18 22 25 26 24 26 31 32 31 33 31 27 30 38 40
7 7 7 7 7 8 8 9 10 10 11 11 12 13 12 10 11 10 6 3 4 4 4 4 6 5 7 12 15 15 17 18 18 18 17 14 11 8 7 8 8 10 9 6 7 9 8 5 3 4 6 8 8 9 11 12 9 8 6 7 10 9 10 12 13 11 9 10 12 13 16 16 15 16 18 23 24 24 30 32 30 29 28 28 29 30 32 30
7 7 8 7 7 8 8 9 10 11 12 11 12 12 9 7 7 4 4 8 11 11 12 13 16 19 20 23 25 23 23 22 21 18 15 11 7 7 8 9 10 10 6 4 5 7 7 5 6 7 9 11 10 11 15 12 5 5 6 8 11 11 12 13 15 13 4 6 10 11 16 16 16 17 18 26 27 25 28 26 25 27 28 31 31 25 15 13
8 8 8 8 8 9 9 9 9 11 12 12 12 9 5 5 4 4 9 16 17 16 19 22 24 26 27 28 27 24 18 16 17 15 11 8 6 7 9 10 8 6 3 3 4 3 5 7 8 11 13 9 5 6 9 10 8 9 9 10 10 10 13 12 13 14 3 2 7 9 15 16 15 18 21 26 24 21 21 20 22 26 32 31 19 10 10 11
9 9 9 9 9 9 10 9 9 10 10 11 11 7 5 6 6 7 9 12 19 22 22 24 26 29 31 31 32 29 18 12 13 11 8 7 9 7 8 9 6 4 4 4 2 2 5 8 10 15 13 3 0 1 3 7 10 10 8 8 8 8 11 10 10 8 1 1 8 10 14 14 17 21 22 21 17 19 20 19 25 29 29 19 10 13 13 15
11 10 8 8 7 8 9 9 9 8 8 8 8 7 8 9 9 12 9 7 14 21 22 23 23 25 27 26 28 27 19 14 12 10 9 8 10 9 9 9 6 3 5 7 8 5 5 6 11 16 10 4 6 4 3 6 8 8 8 7 8 7 9 8 5 1 1 4 9 12 13 12 15 15 13 12 11 15 19 24 32 31 22 14 14 15 14 14
11 9 8 7 7 8 8 8 7 7 7 6 6 7 8 10 11 14 10 5 7 13 18 17 12 13 14 12 13 14 16 15 10 9 13 13 11 9 8 8 5 4 7 11 12 11 9 2 3 7 5 8 11 7 6 8 8 9 8 7 10 11 11 11 6 5 7 7 5 10 12 7 5 4 3 2 4 8 18 27 25 16 13 13 12 11 11 13
10 9 9 9 9 8 8 8 6 5 7 6 5 6 9 11 13 14 9 4 4 6 9 5 1 4 4 2 2 6 8 10 8 7 10 16 14 7 4 6 5 6 9 10 9 11 11 2 3 3 3 7 9 7 10 10 8 8 7 11 15 14 13 14 11 8 8 5 2 8 10 3 3 3 1 3 3 8 19 21 9 2 6 8 7 7 12 16
11 10 9 9 8 7 8 8 5 5 6 4 4 6 8 10 12 13 7 3 2 2 2 1 1 1 1 1 2 6 4 3 6 7 9 13 14 8 3 4 3 3 4 4 4 6 5 1 2 4 4 5 6 9 10 9 8 8 3 7 12 12 12 11 9 6 5 5 2 2 6 6 4 6 7 7 8 13 17 11 5 6 5 8 8 9 15 21
11 10 9 7 6 7 8 8 5 5 4 4 4 6 7 9 11 11 5 3 3 1 2 1 2 1 1 1 4 5 2 2 2 5 10 12 11 8 5 4 3 1 3 2 2 2 3 2 3 3 5 5 7 8 6 9 8 5 2 0 4 6 7 5 4 5 4 6 3 4 4 8 7 4 5 6 8 14 15 7 6 8 8 12 13 14 19 22
10 10 9 8 7 7 8 8 7 5 4 5 4 5 6 8 9 8 3 4 2 2 2 2 2 3 2 3 6 3 1 1 1 2 9 11 9 6 5 5 4 2 4 4 5 1 2 4 5 6 6 6 7 3 4 10 7 2 3 2 1 0 2 1 3 5 3 6 5 4 5 6 8 2 2 3 7 10 8 4 6 11 13 14 15 19 22 22
9 9 9 9 9 8 8 9 8 6 5 5 4 5 6 7 6 4 1 3 2 3 1 1 2 2 3 4 4 1 1 1 0 2 6 9 9 5 3 4 2 1 4 5 7 4 1 1 3 6 6 6 5 1 3 9 5 1 4 3 4 3 1 1 3 4 3 6 6 6 8 6 10 3 4 1 4 5 1 4 7 14 16 16 17 19 22 23
10 10 10 11 11 10 9 9 8 7 5 5 4 4 5 5 2 1 4 3 2 1 1 2 1 1 2 4 2 1 2 1 2 5 5 5 8 5 2 1 1 2 3 3 7 7 1 2 1 4 7 3 4 3 1 3 1 3 4 1 1 2 1 1 2 2 3 8 5 9 13 8 7 2 4 3 0 2 1 2 4 10 15 17 17 19 22 24
12 12 12 12 12 11 10 9 9 7 5 5 3 2 3 2 0 4 6 1 2 0 2 1 0 1 2 2 1 1 1 1 3 5 3 3 5 4 1 2 2 2 3 3 6 5 3 3 2 4 7 3 5 2 1 2 1 2 2 2 3 2 1 2 2 2 4 8 2 5 9 9 8 3 1 1 1 2 3 3 5 7 13 16 16 18 24 26
15 14 14 13 12 10 9 8 7 5 4 4 2 1 1 1 4 6 3 1 1 1 1 0 1 1 1 0 1 1 0 1 3 4 3 2 3 4 4 4 2 3 4 3 2 2 3 5 3 1 4 6 5 2 2 2 2 3 2 2 3 3 2 3 2 2 6 5 2 3 4 6 11 8 4 8 9 4 2 3 8 7 12 15 14 18 26 28
16 15 14 13 11 10 9 8 7 6 4 3 2 0 1 4 5 3 3 2 1 1 1 1 1 1 1 1 1 1 1 1 4 4 2 2 2 4 5 4 2 3 5 1 2 4 3 2 5 3 3 9 11 6 4 3 5 7 5 5 4 3 4 6 3 3 6 2 3 2 3 5 10 8 5 10 8 7 10 8 9 11 15 16 15 19 27 30
16 15 15 14 13 12 10 9 9 8 6 4 2 1 2 7 3 1 3 4 1 1 1 2 2 0 1 2 2 2 3 3 3 3 2 3 2 3 5 4 5 3 3 3 4 3 6 5 5 6 2 9 14 9 3 1 4 7 5 3 5 4 4 5 4 6 8 4 1 2 3 4 5 1 1 2 5 12 13 12 16 19 19 17 17 21 25 27
18 18 18 17 17 15 12 11 11 9 8 6 3 2 7 8 2 2 5 4 1 1 1 2 2 1 3 3 1 2 5 4 2 2 3 4 3 3 3 3 6 5 3 4 3 2 7 7 2 1 1 8 10 5 1 2 2 3 2 1 4 4 4 5 5 6 6 5 3 4 3 4 3 5 3 4 12 14 14 17 20 20 18 18 20 21 23 24
22 22 22 22 21 19 15 14 12 10 9 7 4 7 9 6 3 3 2 2 2 1 1 1 2 3 5 3 2 2 4 3 1 1 3 3 3 3 2 1 5 9 7 4 2 2 6 6 3 3 2 4 3 2 1 1 2 3 3 4 2 0 1 5 7 3 2 6 5 5 6 6 6 9 2 11 14 13 14 16 17 18 17 19 20 19 20 22
26 25 26 27 26 21 18 16 13 13 12 8 7 9 5 4 7 6 2 3 2 3 1 4 2 3 4 3 2 3 3 2 1 2 2 2 2 4 4 3 4 10 7 2 2 2 4 6 2 3 3 3 1 3 1 1 0 3 3 2 0 1 1 3 5 3 5 10 7 7 12 11 8 6 4 12 13 11 11 12 13 15 16 17 17 16 18 20
27 26 28 30 29 23 20 18 16 16 13 8 11 12 5 3 7 8 6 4 1 1 3 6 4 2 4 6 4 3 4 3 3 2 3 3 3 4 4 2 3 5 3 1 2 1 1 7 5 3 2 1 2 2 3 1 1 1 1 2 1 2 3 4 4 3 7 11 9 9 13 11 9 10 7 3 10 12 9 9 11 12 13 13 13 15 17 20
23 19 19 23 23 20 21 22 21 21 15 8 11 11 5 5 7 10 10 7 2 2 5 8 6 4 5 6 3 2 4 4 2 2 2 3 4 3 3 1 1 2 1 4 3 2 1 5 6 2 3 2 3 3 5 3 2 1 1 2 0 2 4 4 3 2 6 11 10 9 11 9 8 8 6 4 11 10 7 8 9 9 10 10 10 11 14 17
14 9 8 11 11 13 20 24 23 21 13 9 10 8 3 3 6 10 14 10 5 4 5 6 6 6 6 5 4 2 2 4 3 4 3 3 6 5 0 1 1 1 1 2 2 1 1 4 6 2 1 2 3 4 4 5 3 3 4 4 3 2 2 3 3 2 6 10 10 11 11 7 2 3 6 9 10 8 7 8 6 6 8 7 7 9 12 14
10 4 5 9 9 12 23 23 18 14 9 9 10 7 5 3 2 5 9 10 9 5 3 3 4 5 5 4 4 2 1 3 4 5 5 5 8 7 2 4 3 1 1 1 1 1 2 3 6 7 5 6 7 2 2 2 1 2 4 5 6 6 4 6 9 7 7 8 6 8 9 3 2 4 7 8 6 7 8 8 6 6 6 6 7 10 12 13
12 3 4 10 10 17 26 17 10 11 8 9 8 5 6 5 3 3 4 5 7 4 3 3 3 4 4 5 4 1 2 3 3 4 4 5 9 7 3 5 3 2 1 1 1 1 1 1 4 8 7 9 11 4 2 1 1 1 4 3 3 4 3 7 10 6 4 4 2 4 6 1 1 1 5 7 6 7 7 8 8 6 5 6 9 12 14 15
11 5 7 11 13 22 24 9 7 9 7 8 7 6 8 4 2 4 3 3 4 3 3 3 3 6 6 5 5 4 4 4 6 8 7 5 5 2 6 7 4 3 2 1 1 2 1 1 4 6 6 8 10 4 3 2 1 2 2 1 1 3 1 3 6 4 4 5 5 6 5 2 2 3 4 8 9 8 7 7 8 7 5 5 8 12 14 14
10 9 10 12 19 27 18 5 7 10 8 8 8 11 11 6 5 5 3 4 5 3 2 2 3 6 4 1 2 4 5 4 6 6 5 3 1 3 7 9 5 2 1 0 1 1 1 2 3 4 4 4 6 4 2 1 1 1 1 1 3 3 3 3 4 4 4 5 6 8 5 1 4 5 5 8 8 7 7 6 6 6 5 5 8 12 13 12
6 8 9 13 23 27 14 3 4 7 10 11 11 13 12 8 7 8 6 7 7 5 3 2 2 3 2 0 1 2 3 4 4 2 1 1 1 1 3 5 4 1 2 3 3 1 2 2 2 4 6 5 4 4 2 1 1 1 2 2 3 5 6 6 6 6 5 4 4 6 6 5 3 6 6 5 5 4 6 5 4 5 4 4 5 7 9 10
4 4 5 8 16 19 12 5 3 4 7 9 9 10 12 11 6 4 6 9 10 9 7 6 3 1 2 3 4 6 7 6 5 3 2 3 1 1 1 2 3 3 5 5 4 3 1 2 5 8 9 7 7 7 5 4 5 6 6 5 8 9 7 6 7 7 6 7 8 8 11 14 12 15 15 5 3 3 4 4 3 3 3 3 3 4 6 8
3 2 4 4 7 10 8 6 5 4 3 5 5 4 8 12 8 4 6 6 7 9 8 5 4 5 6 7 7 9 9 7 7 6 6 5 1 1 2 3 4 3 4 2 2 3 2 4 7 10 11 10 12 13 11 7 7 9 10 11 13 13 10 9 10 10 10 11 11 9 13 16 14 17 18 6 4 4 4 5 4 3 4 4 5 7 7 7
3 1 4 5 3 4 4 5 5 5 3 3 3 3 4 8 9 6 5 3 4 7 6 3 4 7 7 5 5 4 5 6 6 4 3 2 0 2 2 3 4 5 2 1 3 2 2 6 8 9 10 12 13 14 10 7 7 9 11 13 15 16 15 14 13 13 13 13 14 15 17 19 16 16 11 4 6 4 4 5 5 5 5 6 7 9 9 8
3 1 2 3 2 1 1 1 3 4 6 4 3 4 5 7 9 5 1 1 2 4 5 5 4 4 3 2 3 2 3 4 3 1 1 1 1 1 1 0 2 6 6 3 3 0 2 5 6 6 7 9 11 11 9 8 10 11 13 14 16 19 20 18 16 17 17 18 20 20 22 21 14 6 2 6 5 3 4 6 6 6 7 7 8 10 11 10
3 2 2 2 1 2 2 2 2 2 4 4 4 5 5 8 10 5 2 1 3 2 2 4 4 4 2 2 2 2 1 1 1 1 2 1 1 0 1 2 1 3 4 1 2 2 3 4 3 3 6 9 11 12 12 10 10 12 14 16 19 20 20 18 17 16 16 18 19 20 21 16 5 4 5 3 2 3 5 7 8 8 9 9 10 12 13 12
5 4 3 2 1 2 2 1 2 3 4 4 5 4 3 5 6 1 2 1 0 1 1 2 4 3 2 2 3 3 2 4 2 2 3 1 3 1 1 0 1 1 2 2 2 2 4 5 4 5 8 11 11 12 10 7 8 12 16 19 21 19 17 17 16 14 15 16 17 17 15 8 2 4 2 1 1 3 6 8 8 9 10 11 13 15 16 16
9 6 4 3 1 2 4 3 3 4 4 3 3 3 1 1 1 1 2 1 5 4 3 4 3 2 2 5 4 2 3 4 3 2 1 3 5 4 5 6 5 5 3 2 2 3 4 5 6 6 8 8 9 8 4 4 8 12 12 14 17 17 16 15 15 15 16 15 13 10 6 1 4 4 1 1 1 5 8 8 9 10 13 14 16 18 19 19
Wind_Direction
338 343 346 354 355 355 357 357 355 352 351 344 342 338 331 325 321 318 318 320 320 322 323 325 326 326 326 327 327 327 327 325 322 314 311 307 255 319 334 316 291 259 238 223 224 234 228 222 217 211 204 202 215 210 201 195 178 185 209 249 247 258 245 197 217 220 273 295 272 242 234 242 268 276 282 292 267 255 269 272 269 264 265 268 270 274 278 282
317 320 322 324 324 326 327 324 323 322 319 318 315 313 312 308 308 307 308 309 308 313 314 317 319 319 321 321 323 323 323 324 318 311 306 244 114 15 345 329 324 268 239 228 232 238 231 229 225 216 203 205 224 209 212 197 185 205 231 250 246 255 235 179 228 231 232 277 288 276 263 253 269 287 286 281 271 262 269 274 271 264 269 275 276 279 280 282
307 308 309 309 309 310 308 307 307 306 305 305 304 303 303 301 302 302 302 303 304 306 307 310 311 313 315 315 319 319 323 324 316 308 235 150 57 6 346 316 315 300 245 234 233 232 227 228 226 215 207 212 220 202 208 205 206 217 220 252 254 248 244 213 233 239 243 272 288 282 276 266 270 278 267 266 276 271 263 270 271 265 270 281 288 291 287 283
300 299 300 299 299 299 298 299 299 299 299 298 299 299 298 299 299 299 301 301 302 303 304 306 305 308 309 310 313 314 322 322 312 289 174 176 329 336 334 302 286 311 242 237 233 232 229 226 224 211 212 221 211 210 220 216 209 181 202 250 263 241 255 238 237 247 253 265 275 280 286 278 275 273 252 249 275 271 260 263 267 274 283 288 290 293 290 285
294 294 295 293 293 294 293 294 294 294 294 294 295 295 295 295 295 296 297 298 299 300 301 302 302 304 303 305 306 308 322 325 316 202 193 254 305 312 313 281 271 286 248 250 236 237 234 227 224 210 218 228 191 206 224 211 208 207 223 247 260 243 264 258 241 254 260 260 266 274 282 282 281 272 248 231 245 263 269 274 276 281 289 289 285 287 288 285
288 289 288 289 289 290 290 291 291 291 291 291 291 290 291 290 290 291 291 292 293 293 294 295 296 297 297 299 298 300 304 287 293 289 274 288 295 293 286 265 260 265 274 263 242 239 233 225 220 206 213 231 209 218 226 202 207 243 242 239 253 247 255 267 258 262 264 256 259 263 278 285 281 277 260 228 232 260 274 282 285 286 288 289 288 286 287 286
282 283 283 284 284 285 285 286 287 288 288 288 288 288 288 287 288 288 288 288 287 288 289 289 290 290 293 293 292 292 265 265 289 290 287 290 286 280 268 253 248 261 272 265 255 244 235 224 216 203 210 237 222 219 229 210 205 241 261 247 256 254 255 266 268 266 266 260 260 268 280 281 270 280 282 247 235 265 281 287 288 289 289 289 289 286 287 288
279 280 281 282 282 283 284 285 287 288 289 289 290 290 289 289 289 289 289 288 287 287 287 287 287 287 289 288 291 287 258 274 295 294 284 275 269 269 253 242 246 263 267 263 261 250 239 223 215 208 221 239 230 218 213 225 211 223 252 265 264 263 264 270 275 272 271 267 265 267 269 269 268 277 285 272 262 273 284 290 291 290 288 287 287 287 289 288
276 277 278 280 282 284 286 288 290 291 293 293 293 292 292 292 291 291 291 289 289 288 287 287 286 286 287 285 287 278 267 285 299 287 273 259 263 263 254 252 255 263 263 259 255 248 236 223 224 223 236 244 238 232 194 219 228 213 244 276 278 276 275 277 279 274 272 270 260 248 258 266 271 277 278 274 274 280 284 289 293 291 288 288 289 292 293 290
277 278 279 281 284 286 289 292 294 295 296 295 295 295 295 295 294 294 292 291 289 288 287 286 285 285 283 282 279 268 278 291 289 276 277 273 272 266 260 258 260 264 261 255 252 250 243 242 243 231 241 249 239 231 186 209 249 240 271 291 282 280 281 278 277 272 266 268 248 224 258 269 268 269 272 274 279 284 282 286 292 292 289 291 292 295 297 294
280 282 284 285 287 289 292 294 295 297 297 297 297 297 297 297 298 297 295 294 291 290 288 285 284 281 279 276 261 257 280 287 281 281 279 275 274 268 263 258 259 261 255 255 256 257 251 248 242 218 226 233 227 225 213 229 252 300 311 295 282 279 282 271 266 266 253 260 242 217 252 268 263 219 252 268 279 280 281 283 288 289 289 292 292 294 296 294
278 281 283 285 288 290 292 295 296 298 298 298 298 298 298 298 298 297 296 296 293 291 288 284 281 276 276 272 260 264 281 281 278 279 275 273 271 267 265 259 257 254 251 255 258 257 246 241 234 223 229 229 224 226 231 231 238 283 295 288 287 284 285 271 257 258 235 233 212 191 236 257 239 231 252 268 276 276 280 282 282 284 285 287 289 292 292 291
274 277 279 282 285 288 292 294 297 300 300 299 299 299 299 299 299 298 296 295 294 291 287 282 276 273 269 268 269 275 281 278 275 273 270 270 267 266 264 261 259 252 250 253 255 251 237 236 232 227 236 237 240 240 260 84 207 270 257 270 292 286 284 272 233 240 231 209 163 167 256 258 229 244 261 272 273 274 279 278 278 279 281 284 287 289 290 291
268 271 275 279 282 287 291 295 299 301 302 302 302 301 301 302 301 300 300 299 296 292 287 278 271 267 257 262 276 281 280 278 275 270 268 267 265 266 265 264 263 257 254 252 251 244 231 227 221 223 235 235 240 261 275 360 245 274 270 229 273 272 273 272 137 165 243 195 164 181 269 268 257 266 276 284 277 279 277 276 279 278 279 281 284 286 288 292
262 267 271 276 282 287 291 295 298 302 306 306 307 307 305 306 305 304 304 302 300 296 289 279 268 259 252 266 276 279 279 279 277 273 268 264 262 265 267 266 262 256 252 243 239 235 226 210 205 215 233 234 239 260 272 291 264 256 269 256 232 235 264 282 260 221 246 200 168 194 270 268 260 271 285 292 286 286 282 282 284 282 281 281 282 283 285 291
261 266 270 277 283 288 295 299 301 309 315 316 316 314 312 313 311 308 306 304 302 299 290 278 265 247 245 270 272 274 279 281 284 279 270 265 261 261 264 263 258 248 236 231 229 225 210 188 196 211 226 242 235 239 266 284 267 222 236 265 256 259 277 294 284 239 212 178 186 213 263 280 266 274 286 289 289 290 286 284 283 282 282 281 282 283 285 290
259 266 272 280 286 294 302 304 309 317 321 324 322 321 322 318 313 309 307 306 305 303 290 274 257 241 247 261 265 271 278 284 289 284 277 271 264 260 258 251 242 229 216 215 208 195 186 177 189 208 219 243 201 211 256 257 257 236 221 249 254 258 272 287 295 288 163 184 224 225 241 267 272 279 284 285 287 286 281 280 279 279 280 280 282 284 287 288
255 265 273 282 291 299 304 310 316 319 324 328 325 328 326 318 314 310 307 304 306 315 299 262 215 229 248 250 256 268 278 283 287 288 286 279 270 262 247 233 226 206 187 186 179 172 171 171 192 220 218 224 199 202 230 237 253 271 266 271 278 255 251 263 274 287 255 246 260 254 252 264 273 276 278 277 279 279 276 274 274 277 280 283 282 281 286 290
251 260 268 279 290 297 306 316 321 324 329 328 327 331 330 321 315 307 291 281 305 301 286 229 206 244 271 265 267 275 280 281 284 283 279 272 264 246 219 207 199 178 167 169 174 175 170 156 181 218 221 222 212 203 225 243 261 286 290 278 284 276 262 264 265 271 288 286 278 273 273 278 282 281 280 279 276 271 269 270 276 281 284 285 281 279 286 296
252 259 269 281 292 297 304 315 323 328 328 327 332 337 338 335 325 302 273 288 293 282 273 263 252 257 266 271 275 276 277 278 278 275 269 263 244 211 184 171 171 171 175 176 171 175 183 196 197 209 226 232 225 214 232 255 293 298 278 265 268 273 272 270 272 275 291 291 276 268 276 284 286 284 281 278 274 266 266 273 281 284 284 279 277 283 302 322
261 267 277 287 291 293 296 309 323 326 325 328 337 346 6 1 333 304 309 303 297 288 280 278 269 261 261 264 266 266 270 276 274 266 260 243 192 178 170 161 166 185 180 113 113 139 191 221 215 220 236 247 249 231 242 260 272 263 260 269 266 262 270 266 271 282 300 289 274 264 276 284 284 281 274 270 269 268 272 278 279 276 275 275 284 327 11 351
272 278 281 281 280 283 290 308 322 323 325 328 334 348 8 358 333 320 319 299 296 298 289 278 268 260 258 256 255 257 258 266 268 257 248 205 179 182 169 166 192 199 148 129 139 165 208 230 227 230 237 244 327 198 232 247 253 256 252 264 267 264 277 269 256 275 347 272 285 292 292 287 275 270 268 268 268 269 269 264 262 261 264 278 340 2 355 344
278 284 283 278 278 283 292 311 322 321 324 327 334 350 357 351 343 337 328 276 289 299 286 273 266 262 263 260 257 256 248 247 255 251 243 210 186 193 180 178 205 181 159 191 208 220 229 227 228 234 230 207 233 211 201 252 248 242 240 258 272 267 274 270 238 254 360 268 288 300 293 277 266 259 259 269 262 259 262 255 254 255 263 297 333 329 338 352
280 285 287 294 296 294 296 309 318 319 323 330 340 351 353 349 347 343 331 269 276 290 277 270 269 270 273 273 260 244 234 236 242 245 235 213 191 192 193 190 195 194 204 209 215 235 249 234 196 228 209 213 235 222 213 250 253 237 230 242 263 263 262 268 281 330 308 273 294 313 296 273 247 208 184 241 218 243 262 258 252 254 275 298 310 322 358 13
274 282 293 303 300 298 301 307 316 316 319 329 340 349 355 352 349 348 335 279 263 267 263 263 270 266 266 300 239 198 212 227 224 220 209 202 195 182 183 190 196 224 220 209 219 244 256 248 132 163 170 203 222 228 223 230 257 257 222 224 248 264 271 276 294 326 308 271 45 350 318 300 154 164 207 285 266 259 260 258 258 325 314 327 351 8 34 48
260 273 288 293 292 299 303 306 306 301 312 323 333 348 355 353 350 350 342 278 260 231 225 216 167 161 131 29 160 160 166 203 219 218 195 196 198 189 187 177 188 252 207 184 223 250 257 235 143 183 183 176 204 241 228 206 247 270 226 221 244 260 269 278 297 310 297 291 41 24 304 289 248 227 247 262 261 260 260 267 325 350 5 51 48 39 57 67
252 266 275 272 273 289 292 293 282 280 300 305 320 344 353 354 352 353 345 265 270 123 103 128 147 79 25 167 151 154 168 122 157 200 193 196 195 200 229 193 179 246 143 158 250 224 198 149 108 171 186 185 214 246 218 183 226 266 43 343 242 257 265 268 286 268 280 310 300 178 224 280 282 234 225 238 239 257 268 293 359 7 41 75 72 61 66 69
254 264 267 260 260 274 281 283 275 265 272 287 317 339 351 352 347 349 328 278 314 90 100 99 113 44 37 151 156 138 32 114 132 175 189 196 189 192 240 239 233 212 157 205 250 224 159 181 174 170 179 208 218 237 159 177 218 287 62 48 90 36 281 203 263 266 285 313 289 177 173 269 283 241 169 232 238 253 274 328 44 60 57 59 64 64 67 67
251 254 257 258 264 270 272 274 270 258 261 281 311 331 345 347 344 3 261 262 352 77 113 141 125 46 71 141 174 219 18 50 81 147 171 189 193 192 248 255 245 213 192 226 256 275 39 174 203 180 191 224 209 72 146 184 210 137 124 101 92 101 77 141 265 288 288 287 267 175 168 257 290 257 147 163 253 255 323 57 73 85 72 55 58 62 63 64
249 249 254 260 266 271 268 265 263 256 257 274 298 327 339 338 340 242 224 236 1 54 158 181 189 7 127 158 195 250 247 320 97 135 146 171 197 208 279 289 156 204 223 246 260 263 270 65 6 216 227 234 108 72 356 183 149 122 149 134 117 169 120 142 251 312 277 271 251 171 177 221 287 279 154 145 90 302 14 78 83 90 78 62 61 59 58 63
250 252 256 261 264 267 265 261 258 252 254 268 291 330 332 351 167 228 234 267 345 239 148 151 221 77 142 181 235 159 187 212 133 159 166 148 184 198 249 236 175 197 233 237 248 252 210 195 220 224 224 179 109 113 37 60 90 169 189 299 288 240 191 190 187 142 244 266 282 147 174 207 243 237 119 49 10 306 276 294 337 45 73 67 62 61 63 64
254 256 257 260 261 259 258 256 252 244 251 260 260 295 333 266 229 222 205 32 312 221 145 132 346 100 116 18 298 129 186 210 166 186 187 155 193 192 209 219 186 256 262 219 233 266 213 206 188 192 215 194 182 177 132 120 176 202 204 229 270 281 258 242 224 188 240 258 52 100 159 211 246 255 280 284 285 305 20 357 344 18 71 71 62 62 64 63
256 255 255 255 254 252 246 246 245 233 234 238 224 270 68 233 238 201 161 195 225 90 83 93 61 86 142 259 248 146 288 239 168 193 183 150 239 222 221 222 158 260 273 250 302 292 268 217 147 159 235 197 190 193 209 204 181 189 192 190 213 243 260 261 257 258 262 265 71 113 178 233 265 272 264 268 294 20 50 43 26 42 68 74 65 58 58 58
252 252 253 251 251 249 240 239 241 234 226 217 190 113 215 232 240 92 194 221 256 18 72 104 96 117 187 252 261 178 240 258 150 182 200 166 221 236 227 216 178 208 262 264 285 267 269 284 171 174 182 169 188 212 233 106 163 189 187 187 213 222 246 263 249 257 276 291 75 153 188 238 269 322 185 247 47 60 62 60 60 62 68 72 62 52 51 51
251 252 254 254 253 249 242 237 236 236 224 199 170 203 230 233 215 161 214 224 281 320 337 99 116 240 236 219 249 200 225 247 113 143 209 194 223 236 222 209 183 182 200 243 259 188 242 265 159 119 31 159 187 221 106 83 187 183 117 202 242 233 225 258 263 260 288 301 244 203 230 244 271 303 292 99 84 77 67 60 62 61 61 61 53 45 45 48
257 258 258 259 257 251 246 239 232 230 215 186 196 231 231 233 213 193 192 187 190 131 357 280 167 240 261 224 208 189 195 222 158 183 211 209 246 230 216 257 182 181 186 207 236 211 245 258 98 61 282 180 200 323 93 244 243 138 154 207 226 11 208 260 270 252 254 272 251 229 259 267 280 291 282 103 91 79 64 56 56 52 49 51 47 41 42 46
265 265 264 262 259 251 243 235 225 218 204 189 223 236 229 232 223 215 161 122 142 123 166 261 212 212 255 244 210 167 171 207 180 203 211 200 241 198 196 254 192 192 209 222 254 248 274 279 218 159 223 210 337 330 331 325 320 147 185 222 98 54 160 241 265 251 234 255 253 235 256 269 277 276 136 110 92 77 65 58 56 49 44 46 43 39 40 43
267 268 266 263 260 252 238 228 217 206 198 198 234 241 237 219 209 201 182 161 145 127 205 244 237 199 241 254 252 149 166 198 161 185 218 210 218 162 161 249 178 185 227 196 238 277 322 287 269 154 197 180 108 272 253 197 246 225 283 323 346 247 240 209 226 246 244 256 259 238 244 251 251 256 247 124 86 84 73 60 58 50 46 45 40 38 41 43
266 267 267 263 260 248 228 216 204 198 199 210 233 238 233 224 220 214 207 195 175 183 221 238 231 224 237 239 244 139 174 201 165 182 217 214 225 172 140 273 175 159 209 182 223 310 60 276 282 88 106 109 123 219 234 209 183 151 264 274 207 251 260 239 228 249 248 259 263 247 243 241 243 263 277 46 70 80 80 67 61 55 53 50 45 42 42 45
256 255 259 248 245 226 201 193 191 194 203 218 227 231 218 225 236 224 216 209 197 199 224 230 215 227 241 231 229 220 204 219 217 233 231 230 261 260 207 358 324 117 121 179 225 299 116 244 264 261 138 226 233 213 230 254 243 208 222 231 220 218 252 269 255 220 241 259 264 261 257 249 273 8 70 82 75 78 86 84 79 70 68 63 57 56 53 51
214 214 243 214 210 192 174 172 187 200 210 225 229 238 236 240 250 213 209 210 213 222 228 210 208 227 247 248 238 207 176 222 225 240 245 236 251 263 24 25 331 351 93 172 194 216 240 235 252 261 248 257 274 247 166 251 258 225 244 238 234 237 245 261 250 222 227 251 259 263 264 249 43 35 83 94 84 84 88 95 98 86 82 78 63 57 53 48
186 192 222 198 193 177 165 165 201 207 212 227 226 229 229 239 246 209 193 200 213 233 235 213 222 235 245 254 250 218 202 229 220 229 247 241 236 243 33 33 346 351 11 296 26 49 360 276 260 264 257 269 287 304 113 159 162 234 263 262 269 276 265 259 262 261 260 277 306 277 262 224 50 25 102 110 111 106 102 106 107 96 85 72 56 49 45 38
187 192 182 177 178 174 167 173 216 203 222 240 236 235 228 234 243 202 177 190 204 217 220 212 218 229 240 245 233 224 224 230 235 236 241 247 234 264 20 32 39 15 355 314 350 33 44 265 263 263 264 276 278 268 94 57 229 221 260 328 304 291 296 252 265 292 289 271 278 269 253 199 193 207 138 131 134 126 120 121 123 120 110 82 53 43 36 30
194 192 177 167 172 177 178 195 207 204 226 233 236 242 238 249 254 229 206 198 201 193 194 224 229 226 238 254 212 225 233 238 245 241 236 247 247 54 37 41 56 36 360 160 238 302 285 268 284 284 279 272 260 236 132 90 158 213 270 187 182 215 265 265 251 269 254 233 243 257 263 180 159 184 162 144 143 133 120 116 117 115 105 79 51 37 29 24
183 196 196 183 179 185 200 247 205 211 222 223 235 242 242 253 249 235 230 220 213 201 198 236 240 224 228 121 98 233 239 241 247 237 154 225 249 107 58 43 49 105 135 138 155 177 265 250 264 285 277 268 270 271 268 287 333 312 270 232 224 246 274 283 272 263 251 247 264 263 273 288 255 251 246 177 145 120 106 97 85 88 79 60 48 32 24 23
174 196 202 196 193 201 224 255 233 226 222 221 234 240 239 244 246 224 223 233 232 224 232 248 232 180 225 208 225 248 238 218 214 224 237 236 224 131 95 51 47 120 136 124 127 150 221 234 226 248 261 268 279 281 284 291 283 280 284 283 281 278 274 270 266 261 268 285 278 260 270 281 283 285 284 270 95 56 66 63 45 54 33 7 5 0 7 8
193 211 169 174 207 218 231 240 225 218 219 214 220 244 242 239 248 245 217 226 226 213 227 247 210 212 229 213 220 242 240 222 216 227 244 245 230 76 107 95 54 77 140 111 75 143 217 259 239 246 259 265 273 278 282 284 271 273 282 281 280 281 271 257 256 263 278 284 274 265 274 278 278 283 288 304 56 35 36 35 14 359 332 317 315 318 327 334
192 204 156 156 191 218 223 226 207 200 217 214 218 282 265 230 238 246 223 213 193 191 207 226 198 213 227 211 199 218 235 234 228 218 224 233 271 44 77 100 57 44 74 25 22 102 229 271 261 262 270 267 271 277 276 273 270 270 271 270 275 278 273 266 262 263 267 268 271 279 279 274 274 278 288 17 55 28 17 5 345 335 311 290 289 296 299 301
204 213 172 171 173 84 121 104 113 181 215 208 216 249 239 226 232 228 173 247 207 188 205 211 184 174 182 173 171 201 247 247 243 209 111 94 77 72 343 249 76 52 49 20 337 315 222 258 257 261 271 265 267 273 273 275 278 275 269 268 270 270 269 271 271 269 266 263 267 273 271 269 276 291 51 72 48 12 0 338 327 326 313 296 286 286 288 292
218 217 174 154 122 82 74 59 81 176 218 213 230 234 209 221 233 216 94 283 237 219 228 207 164 123 113 125 151 201 224 146 233 288 109 99 287 176 289 270 123 48 21 353 293 285 263 258 257 277 282 271 268 273 276 278 281 281 277 272 267 265 267 269 269 268 267 265 265 265 265 266 275 73 84 86 36 357 336 324 327 325 317 310 296 289 291 298
211 204 165 126 130 145 138 146 178 208 228 219 226 238 210 227 239 200 74 26 314 291 290 173 150 126 125 174 201 226 197 144 179 217 138 196 280 318 45 215 106 5 299 243 228 280 280 272 277 290 280 269 268 276 281 290 289 279 271 266 263 261 260 259 258 259 261 265 267 266 268 269 135 106 90 149 207 317 315 313 316 311 306 305 299 294 292 294
211 214 199 166 178 171 157 158 176 199 223 216 216 240 241 230 30 90 210 114 68 53 58 97 124 143 210 237 241 217 178 159 171 197 193 259 273 271 257 252 250 250 237 205 241 246 244 258 268 273 270 265 268 278 300 332 292 270 259 259 261 262 263 260 257 258 260 264 271 272 275 270 133 137 71 2 262 300 313 308 301 301 300 298 298 297 293 288